"Pseudo-MPEC" for A10DvUg

Created 2021 Nov 27 10:07:03 UT using Find_Orb

Click here for an explanation of pseudo-MPECs

 
 Astrometry: 
     A10DvUg  C2021 11 25.45754604 39 39.44 +29 22 24.0    ~BPFM 18.99oVNEOCPT05
     A10DvUg  C2021 11 25.46132704 39 40.60 +29 21 35.4    ~BPFM 18.83oVNEOCPT05
     A10DvUg  C2021 11 25.47488704 39 44.66 +29 18 42.9    ~BPFM 18.70oVNEOCPT05
     A10DvUg  C2021 11 25.48039604 39 46.29 +29 17 33.0    ~BPFM 18.81oVNEOCPT05
     A10DvUg KC2021 11 26bqhcMHmg`p/JWD+RlAsAWqX82jvd8s,UTHAo*?PO$(A*$o%[f8s@858
     A10DvUg KC2021 11 26J=p[.Sg=Tueuj^c4UgPK@E+UeC(`GE0MsZG64CdAstrometry3`D858
     A10DvUg KC2021 11 26wNSj]je]Otr#bsHM)FZP\Is^3ax1^LVqU68O0;G3Wt6*tsPU#g$w858
     A10DvUg  C2021 11 26%k^XVv*tRUOSEB\V]*CnX3yS,).0pfavWyTgO8a'Hj4m2q#IUG34F52
     A10DvUg  C2021 11 26=@A(+qnFG%redacted;yUlNm-/oxDc0o@4$ARkVI2QI:6@c\Ah[vF52
     A10DvUg  C2021 11 26[/Dhr9@pV+ew?Cq5N@!%Co;dXw_!2\\u$nsEdPP*'oMyclick@N:F52
     A10DvUg 1C2021 11 27qS]go!yFa3C6.#;Vv:Aj%-9,-YI5Mth0;72;8soKp,3MGD#;?*+DL81
     A10DvUg 1C2021 11 27kxPR1Sg^NVniGZ*_-dW`R*here-v.H;8-9]_i6pC#.K3V:[7y@xSL81
     A10DvUg KC2021 11 27_V97`FgnH\`/ODH4;7fK\[,MZL3e(LVBLwkNY+7.)_'=WvU]=ZsxW33
     A10DvUg KC2021 11 27fG2FME2/KBQQ@v%S(1UwO2s^IjBB^CforT*JexplanationSpY$9W33
     A10DvUg KC2021 11 27eU3a4@i*\U_3^KaBtQ:qtxnN(?\SR`l=pY%*yHi6WN#;d7NQyj)nW33
     A10DvUg KC2021 11 27rfgT??oe]?DIwlgvAk7uUO#KZ#odKhP8vo1kZn0Xd4U)wY!hpvwy858
     A10DvUg KC2021 11 27#ZWrx(:N@7C+\WG5[D!;uZqc+ma*GX6`QDZBAfXx@%g8:f:VatM%858
     A10DvUg KC2021 11 27%t@dv^\.tSo%w)!sIZqi_9\%v0@J7E*een;I*Jx7sWiVYbm3IRL+858

Station data:
(858) Tebbutt Observatory, Edgewood  (N35.093872 W106.220000)  US/New Mexico.
(F52) Pan-STARRS 2, Haleakala  (N20.707384 W156.255910)  US/Hawaii. 1.8-m
   Ritchey-Chrétien + CCD.
(L81) Skygems Namibia Remote Observatory  (S23.236422 E16.361690)  Namibia.
(T05) ATLAS-HKO, Haleakala  (N20.707573 W156.257010)  US/Hawaii.  Observers
   L. Denneau, A. Heinze, H. Weiland, J. Tonry, H. Flewelling, A.
   Fitzsimmons, D. Young, B. Stalder. Measurers L. Denneau, A. Heinze, J.
   Tonry. 0.5-m f/2.0 Schmidt + CCD.
(W33) Transit Dreams Observatory, Campobello  (N35.077819 W82.165490)
   US/South Carolina.

Orbital elements:  A10DvUg
   Perihelion 2021 Oct 14.682168 +/- 0.0203956 TT = 16:22:19 (JD 2459502.182168)
Epoch 2021 Nov 27.0 TT = JDT 2459545.5   Earth MOID: 0.0064   Ve: 0.0978
M  11.39256838 +/- 0.0637454        Ma: 0.0391                AutoNEOCP
n   0.26299950 +/- 0.0013461        Peri.  111.79228 +/- 0.0056890
a   2.41267836 +/- 0.00823227       Node   248.22798 +/- 0.0010741
e   0.6719671 +/- 0.00121813        Incl.    2.46563 +/- 0.0038773
P   3.75                   H 26.0   G  0.15   U  8.3  
q 0.79143777 +/- 0.000238319    Q 4.03391894 +/- 0.0166498
From 18 observations 2021 Nov. 25-27 (43.9 hr); mean residual 0".43
Residuals in arcseconds: 
211125 T05  .17-  .77+    211126 858  .56-  .32+    211127 W33  .65-  .27+    
211125 T05  .15+  .20+    211126 F52  .01+  .24-    211127 W33  .66-  .31-    
211125 T05  .20+  .34-    211126 F52  .01+  .28-    211127 W33  .57+  1.3+    
211125 T05  .03+  .50-    211126 F52  .15-  .28-    211127 858  .82+  .48-    
211126 858  .43+  .00     211127 L81  .28-  .10+    211127 858  .18+  .33-    
211126 858  .09-  .32-    211127 L81  .09+  .39+    211127 858  .36+  .62-    

Ephemerides (geocentric):
Date (UTC) HH   RA              Dec         delta   r     elong  mag " sig PA
---- -- -- --  -------------   -----------  ------ ------ -----  --- ---- ---
2021 11 27 10  04 48 05.539   +25 01 31.68  .04830 1.0345 171.0 20.1 .078 115
2021 11 27 11  04 48 11.864   +24 58 04.48  .04869 1.0349 171.0 20.1 .083 116
2021 11 27 12  04 48 18.079   +24 54 40.52  .04907 1.0352 171.0 20.1 .087 117
2021 11 27 13  04 48 24.188   +24 51 19.71  .04946 1.0356 171.1 20.1 .092 118
2021 11 27 14  04 48 30.192   +24 48 01.98  .04985 1.0360 171.1 20.2 .097 119
2021 11 27 15  04 48 36.095   +24 44 47.27  .05023 1.0364 171.2 20.2 .101 119
2021 11 27 16  04 48 41.898   +24 41 35.51  .05062 1.0368 171.2 20.2 .106 120
2021 11 27 17  04 48 47.604   +24 38 26.64  .05101 1.0371 171.2 20.2 .111 120
2021 11 27 18  04 48 53.216   +24 35 20.58  .05140 1.0375 171.3 20.2 .115 121
2021 11 27 19  04 48 58.735   +24 32 17.27  .05179 1.0379 171.3 20.2 .120 122
2021 11 27 20  04 49 04.164   +24 29 16.66  .05217 1.0383 171.4 20.2 .125 122
2021 11 27 21  04 49 09.505   +24 26 18.69  .05256 1.0387 171.4 20.3 .129 122
2021 11 27 22  04 49 14.759   +24 23 23.30  .05295 1.0390 171.4 20.3 .134 123
2021 11 27 23  04 49 19.929   +24 20 30.43  .05334 1.0394 171.5 20.3 .139 123
2021 11 28 00  04 49 25.017   +24 17 40.03  .05373 1.0398 171.5 20.3 .143 123
2021 11 28 01  04 49 30.025   +24 14 52.06  .05412 1.0402 171.5 20.3 .148 124
2021 11 28 02  04 49 34.953   +24 12 06.45  .05450 1.0406 171.6 20.3 .153 124
2021 11 28 03  04 49 39.805   +24 09 23.16  .05489 1.0410 171.6 20.3 .157 124
2021 11 28 04  04 49 44.581   +24 06 42.14  .05528 1.0413 171.7 20.4 .162 125
2021 11 28 05  04 49 49.284   +24 04 03.35  .05567 1.0417 171.7 20.4 .166 125
2021 11 28 06  04 49 53.914   +24 01 26.73  .05606 1.0421 171.7 20.4 .171 125
2021 11 28 07  04 49 58.474   +23 58 52.25  .05645 1.0425 171.8 20.4 .175 125
2021 11 28 08  04 50 02.965   +23 56 19.86  .05684 1.0429 171.8 20.4 .180 125
2021 11 28 09  04 50 07.389   +23 53 49.53  .05723 1.0433 171.9 20.4 .185 126
2021 11 28 10  04 50 11.746   +23 51 21.20  .05762 1.0436 171.9 20.4 .189 126
2021 11 28 11  04 50 16.038   +23 48 54.84  .05800 1.0440 171.9 20.5 .193 126
2021 11 28 12  04 50 20.267   +23 46 30.41  .05839 1.0444 172.0 20.5 .198 126
2021 11 28 13  04 50 24.434   +23 44 07.88  .05878 1.0448 172.0 20.5 .202 126
2021 11 28 14  04 50 28.539   +23 41 47.20  .05917 1.0452 172.0 20.5 .207 126
2021 11 28 15  04 50 32.586   +23 39 28.34  .05956 1.0456 172.1 20.5 .211 127
2021 11 28 16  04 50 36.573   +23 37 11.27  .05995 1.0460 172.1 20.5 .216 127
2021 11 28 17  04 50 40.504   +23 34 55.95  .06034 1.0463 172.2 20.5 .220 127
2021 11 28 18  04 50 44.378   +23 32 42.36  .06073 1.0467 172.2 20.6 .224 127
2021 11 28 19  04 50 48.197   +23 30 30.45  .06112 1.0471 172.2 20.6 .229 127
2021 11 28 20  04 50 51.962   +23 28 20.19  .06151 1.0475 172.3 20.6 .233 127
2021 11 28 21  04 50 55.674   +23 26 11.56  .06190 1.0479 172.3 20.6 .237 127
2021 11 28 22  04 50 59.334   +23 24 04.52  .06229 1.0483 172.3 20.6 .242 127
2021 11 28 23  04 51 02.944   +23 21 59.06  .06268 1.0486 172.4 20.6 .246 127
2021 11 29 00  04 51 06.503   +23 19 55.12  .06307 1.0490 172.4 20.6 .250 127
2021 11 29 01  04 51 10.014   +23 17 52.70  .06346 1.0494 172.4 20.6 .254 128
2021 11 29 02  04 51 13.476   +23 15 51.76  .06386 1.0498 172.5 20.7 .259 128
2021 11 29 03  04 51 16.891   +23 13 52.28  .06425 1.0502 172.5 20.7 .263 128
2021 11 29 04  04 51 20.260   +23 11 54.23  .06464 1.0506 172.6 20.7 .267 128
2021 11 29 05  04 51 23.584   +23 09 57.58  .06503 1.0510 172.6 20.7 .271 128
2021 11 29 06  04 51 26.863   +23 08 02.31  .06542 1.0514 172.6 20.7 .275 128
2021 11 29 07  04 51 30.098   +23 06 08.40  .06581 1.0517 172.7 20.7 .279 128
2021 11 29 08  04 51 33.290   +23 04 15.83  .06620 1.0521 172.7 20.7 .283 128
2021 11 29 09  04 51 36.440   +23 02 24.56  .06659 1.0525 172.7 20.7 .288 128